TITAN 3C TRANSTAGE DEB, 43449

Orbit data source: Space-Track

TITAN 3C TRANSTAGE DEB, 43449 is space debris in GEO originally from a launch on Sun, 09 Feb 1969 UTC launched from the Air Force Eastern Test Range (AFETR). Debris objects in space refer to the collection of defunct objects orbiting the Earth. Examples of debris include non-operational satellites, rocket bodies, and fragments generated from explosions, collisions, or faulty payload assembly.

Loading next visibility...
Identifier
43449, 1969-013J
Orbit
GEO
Country
Flag of USUS
Related business
Manufacturer
Martin Marietta
Mission
Spacecraft
Bus & Motor
Unknown
Mass
Unknown
Launch date (UTC)
1969-02-09 (57 years ago)
Launch vehicle
Unknown
Launch site
Air Force Eastern Test Range (AFETR)
Object type
Payload
Rocket body
Debris
Shape & HBR
Unknown shape, 1.1 m
Radar Cross Section
Medium (>0.1 m² and <1 m²)

Expand to show TLE details & history
Last TLE update: 1 day ago

TLE from 1 day ago
0 TITAN 3C TRANSTAGE DEB
1 43449U 69013J   26169.73398296 -.00000087  00000-0  00000-0 0  9990
2 43449   1.4385  72.4763 0146486  68.3425 292.3631  0.96589978 28853
Epoch: 2026-06-18T17:36Z
TLE epoch observation values (Epoch: 2026-06-18T17:36:56.127Z)
Latitude
0.00001°
Longitude
-99.56941°
Altitude
36,615.116 km
Speed
3.053 km/s
True Right ascension
04h 46m 33s
True Declination
0° 00' 00"
Sunlit
Object was in daylight at epoch
Visualization orbit readout
Latitude
Unknown
Longitude
Unknown
Altitude
Unknown
Speed
Unknown
Apparent Right ascension
Unknown
Apparent Declination
Unknown
Sunlit
N/A
Visualization observer readout
Local Sidereal Time
05:31:02
Azimuth
Unknown
Elevation
Unknown
Doppler factor
Unknown
Orbital elements
Apogee altitude
37,485.7 km
Perigee altitude
36,219.165 km
Semi-major axis
43,230.57 km
Eccentricity
0.01465
Inclination
1.4385°
RAAN
72.4763°
Arg. of periapsis
68.3425°
True anomaly
290.80005°
Mean anomaly
292.3631°
Eccentric anomaly
291.58264°
Mean motion
0.24147 °/min
Orbital period
1,490.89 mins
BSTAR
0
Loading maneuver chart data...
Computing Atmospheric mass density...

Documentation

Showing up to 5 results
|